Home > Weather > Sunrise > Past weeks

Flag for USA Past Weather in Sunrise, Florida, USA — Yesterday and Last 2 Weeks

Now
85 °F

Scattered clouds.


Feels Like: 97 °F
Forecast: 78 / 90 °F
Wind: 6 mph from East

Location: Fort Lauderdale Executive Airport

Current Time: Aug 25, 2016 at 9:30:11 AM

Latest Report: Aug 25, 2016 at 8:53 AM


Visibility: 10 mi

Pressure: 29.98 "Hg

Humidity: 80%

Dew Point: 78 °F

Location of SunriseLocation

Past Weather in Sunrise — Graph

°F

Sunrise Temperature Yesterday

Maximum temperature yesterday: 92 °F (at 2:53 PM)
Minimum temperature yesterday: 78 °F (at 6:53 AM)
Average temperature yesterday: 85 °F

High & Low Weather Summary for the Past Weeks

 TemperatureHumidityPressure
High94 °F (Aug 21, 12:53 PM)100% (Aug 10, 7:53 AM)30.16 "Hg (Aug 10, 7:53 AM)
Low73 °F (Aug 12, 2:53 AM)49% (Aug 21, 12:53 PM)29.93 "Hg (Aug 20, 5:53 PM)
Average84 °F75%30.06 "Hg
* Reported Aug 10 7:53 AM — Aug 25 7:53 AM, Sunrise, Weather by CustomWeather, © 2016

Note: Actual official high and low records may vary slightly from our data, if they occured in-between our weather recording intervals... More about our weather records

Advertising

Sunrise Weather History for the Previous 24 Hours

Scroll right to see more
 ConditionsComfort  
Time TempWeatherWind HumidityBarometerVisibility
7:53 AM
Thu, Aug 25
84 °FPartly cloudy.6 mph80%29.98 "Hg10 mi
6:53 AM83 °FPassing clouds.3 mph82%29.97 "Hg10 mi
5:53 AM83 °FPassing clouds.6 mph82%29.96 "Hg10 mi
4:53 AM84 °FPassing clouds.6 mph77%29.96 "Hg10 mi
3:53 AM83 °FClear.7 mph79%29.96 "Hg10 mi
2:53 AM84 °FPassing clouds.9 mph77%29.97 "Hg10 mi
1:53 AM84 °FPassing clouds.7 mph80%29.98 "Hg10 mi
12:53 AM83 °FPassing clouds.10 mph77%30.00 "Hg10 mi
11:53 PM
Wed, Aug 24
83 °FPassing clouds.12 mph82%30.01 "Hg10 mi
10:53 PM83 °FClear.8 mph85%30.01 "Hg10 mi
10:04 PM82 °FPassing clouds.8 mph85%30.03 "Hg10 mi
8:53 PM82 °FThunderstorms. Partly cloudy.5 mph85%30.03 "Hg10 mi
7:53 PM84 °FSunny.5 mph74%30.03 "Hg10 mi
6:53 PM86 °FBroken clouds.10 mph72%30.02 "Hg10 mi
5:53 PM87 °FSunny.10 mph65%30.01 "Hg10 mi
4:53 PM88 °FBroken clouds.10 mph67%30.01 "Hg10 mi
3:53 PM90 °FScattered clouds.14 mph59%30.00 "Hg10 mi
2:53 PM92 °FScattered clouds.13 mph56%30.03 "Hg10 mi
1:53 PM89 °FPassing clouds.12 mph63%30.04 "Hg10 mi
12:53 PM88 °FPartly sunny.8 mph65%30.07 "Hg10 mi
11:53 AM91 °FBroken clouds.12 mph60%30.07 "Hg10 mi
10:53 AM87 °FPartly sunny.5 mph65%30.08 "Hg10 mi
9:53 AM87 °FBroken clouds.5 mph72%30.08 "Hg10 mi
Weather by CustomWeather, © 2016

See weather overviewHow to use our weather pages